Regional Weather Roundup
Issued by NWS

Home | Current Version | Previous Version | Graphics & Text | Print | Product List | Glossary On
Versions: 1 2 3 4 5 6 7 8 9 10 11 12 13 14 15 16 17 18 19 20 21 22 23 24 25 26 27 28 29 30 31 32 33 34 35 36 37 38 39 40 41 42 43 44 45 46 47 48 49 50
000
ASUS45 KSLC 280510
RWRUT

UTAH REGIONAL WEATHER ROUNDUP
NATIONAL WEATHER SERVICE SALT LAKE CITY UT
1100 PM MDT MON APR 27 2015

UTZ001>011-023>025-280600-

NORTHERN UTAH

CITY           SKY/WX    TMP DP  RH WIND       PRES   REMARKS
BRIGHAM CITY   CLEAR     54  35  49 NW8       30.22R
HILL AFB       CLEAR     49  38  65 SE6       30.23R
LOGAN          CLEAR     49  41  74 S3        30.23R
OGDEN          CLEAR     51  39  63 S8        30.22R
PROVO AIRPORT  CLEAR     52  37  58 NW8       30.24R
SALT LAKE CITY CLEAR     51  39  63 E7        30.22S
VERNAL         CLEAR     49  34  56 N10       30.25R
WENDOVER       CLEAR     52  21  30 W6        30.23S
HEBER CITY     MOCLDY    50  36  57 CALM      30.25R
WEST JORDAN    CLEAR     46  37  71 CALM      30.24R

$$

UTZ012>022-026-027-280600-

SOUTHERN/CENTRAL UTAH

CITY           SKY/WX    TMP DP  RH WIND       PRES   REMARKS
BLANDING       CLEAR     47  34  62 NW7       30.23R
BRYCE CANYON   MOCLDY    43  32  65 NE9       30.28R
CEDAR CITY     CLEAR     43  35  73 N8        30.21R
DELTA          CLEAR     50  36  59 N5        30.23S
HANKSVILLE     CLEAR     57  36  44 NE10      30.18R
MILFORD        CLEAR     47  30  51 N9        30.21R
MOAB/CYNLANDS  CLEAR     51  39  63 NW5       30.15R
PRICE          CLEAR     48  34  58 N9        30.23R
ST GEORGE      CLEAR     68  34  28 NE12G22   30.08R
KANAB          CLEAR     55  36  47 NW10      30.18R

$$

REGIONAL REPORTS     COLORADO/ARIZONA

CITY           SKY/WX    TMP DP  RH WIND       PRES   REMARKS
CRAIG, CO      PTCLDY    44  37  76 E6        30.26R
GRAND JUNCTION CLOUDY    56  37  49 VRB6      30.16R
RIFLE          CLOUDY    50  42  74 E5        30.21R
MONTROSE       CLOUDY    50  41  71 SE9       30.21R
CORTEZ         CLEAR     50  40  68 CALM      30.17R
PAGE, AZ       NOT AVBL
GRAND CANYON   CLEAR     38  32  79 CALM      30.20R
KINGMAN        CLEAR     64  25  22 NE8       30.05R
FLAGSTAFF      CLEAR     39  34  82 CALM      30.20R

$$

REGIONAL REPORTS    NEVADA/IDAHO/WYOMING

CITY           SKY/WX    TMP DP  RH WIND       PRES   REMARKS
LAS VEGAS, NV  PTCLDY    74  26  16 CALM      29.98R
ELY            CLEAR     42  19  39 N8        30.25R
ELKO           CLEAR     49  26  41 E3        30.22R
POCATELLO, ID  CLEAR     42  24  49 CALM      30.26R
BURLEY         CLEAR     43  35  73 CALM      30.23R
EVANSTON, WY   PTCLDY    42  30  62 E7        30.30R
ROCK SPRINGS   PTCLDY    38  33  82 NE14      30.32R WCI  30
KEMMERER       CLEAR     41  32  70 CALM      30.32R

$$



USA.gov is the U.S. government's official web portal to all federal, state and local government web resources and services.